Location: Drocourt
(49.0571°N, 1.7669°E)
Time: 06:55:28
(UTC+00:00)

Cosmos 2237 Rocket - Visible Passes

Search period start: 24 September 2023 00:00
Search period end: 04 October 2023 00:00
Orbit: 833 x 851 km, 71.0° (Epoch: 23 September)

Date Brightness Start Highest point End Pass type
(mag) Time Alt. Az. Time Alt. Az. Time Alt. Az.
24 Sep 5.1 03:07:23 10° N 03:08:37 11° NNE 03:09:52 10° NE visible
24 Sep 4.1 04:49:34 10° NNW 04:54:40 32° NE 04:59:43 10° ESE visible
24 Sep 4.3 19:54:52 11° NE 19:54:52 11° NE 19:55:09 10° NE visible
24 Sep 3.5 21:36:38 33° N 21:36:38 33° N 21:39:51 10° NNE visible
24 Sep 4.7 23:18:23 15° NW 23:19:31 16° NW 23:23:01 10° N visible
25 Sep 5.2 02:52:36 10° NNE 02:53:34 10° NNE 02:54:32 10° NNE visible
25 Sep 4.1 04:34:36 10° NNW 04:39:39 31° NE 04:44:39 10° ESE visible
25 Sep 4.1 19:39:21 13° NE 19:39:21 13° NE 19:40:07 10° NE visible
25 Sep 3.2 21:21:04 41° N 21:21:04 41° N 21:24:52 10° NNE visible
25 Sep 4.7 23:02:48 15° NW 23:04:28 17° NW 23:08:05 10° N visible
26 Sep 5.3 02:37:56 10° NNE 02:38:31 10° NNE 02:39:05 10° NNE visible
26 Sep 4.2 04:19:39 10° NNW 04:24:38 30° NE 04:29:35 10° ESE visible
26 Sep 3.7 19:23:10 18° ENE 19:23:10 18° ENE 19:25:05 10° NE visible
26 Sep 2.6 21:04:49 60° NNW 21:04:49 60° NNW 21:09:54 10° NNE visible
26 Sep 4.7 22:46:26 12° WNW 22:49:26 17° NW 22:53:08 10° N visible
27 Sep 4.2 04:04:41 10° NNW 04:09:37 29° NE 04:14:31 10° ESE visible
27 Sep 3.2 19:01:19 10° SSE 19:05:40 23° ESE 19:10:01 10° NE visible
27 Sep 2.4 20:43:32 10° SW 20:49:12 67° WNW 20:54:55 10° NNE visible
27 Sep 4.7 22:30:37 10° WNW 22:34:24 18° NW 22:38:11 10° N visible
28 Sep 4.2 03:49:43 10° NNW 03:54:36 28° NE 03:59:26 10° ESE visible
28 Sep 3.3 18:46:29 10° SSE 18:50:43 22° E 18:54:58 10° NE visible
28 Sep 2.4 20:28:32 10° SW 20:34:13 70° WNW 20:39:56 10° NNE visible
28 Sep 4.6 22:15:30 10° W 22:19:21 18° NW 22:23:15 10° N visible
29 Sep 4.3 03:34:46 10° NNW 03:39:35 27° NE 03:44:21 10° ESE visible
29 Sep 3.3 18:31:39 10° SSE 18:35:46 21° E 18:39:54 10° NE visible
29 Sep 2.3 20:13:32 10° SW 20:19:13 73° WNW 20:24:58 10° NNE visible
29 Sep 4.6 22:00:22 10° W 22:04:19 19° NW 22:08:18 10° N visible
30 Sep 4.3 03:19:48 10° NNW 03:24:34 26° NE 03:29:17 10° E visible
30 Sep 2.2 05:03:30 10° NNW 05:09:11 72° WSW 05:14:49 10° SSE visible
30 Sep 3.4 18:16:49 10° SE 18:20:49 20° E 18:24:50 10° NE visible
30 Sep 2.3 19:58:32 10° SSW 20:04:14 76° WNW 20:09:59 10° NNE visible
30 Sep 4.6 21:45:15 10° W 21:49:17 19° NW 21:53:21 10° N visible
01 Oct 4.3 03:04:51 10° NNW 03:09:32 25° NE 03:14:12 10° E visible
01 Oct 2.2 04:48:30 10° NNW 04:54:12 75° WSW 04:59:51 10° SSE visible
01 Oct 3.5 18:02:01 10° SE 18:05:52 19° E 18:09:45 10° ENE visible
01 Oct 2.3 19:43:33 10° SSW 19:49:15 79° WNW 19:55:00 10° NNE visible
01 Oct 4.6 21:30:09 10° W 21:34:15 20° NW 21:38:24 10° N visible
02 Oct 4.3 02:49:54 10° NNW 02:54:31 24° NE 02:59:05 10° E visible
02 Oct 2.1 04:33:31 10° NNW 04:39:14 78° WSW 04:44:53 10° SSE visible
02 Oct 2.2 19:28:33 10° SSW 19:34:16 82° WNW 19:40:01 10° NNE visible
02 Oct 4.5 21:15:02 10° W 21:19:14 21° NW 21:23:27 10° N visible
03 Oct 4.4 02:34:56 10° N 02:39:30 24° NE 02:44:00 10° E visible
03 Oct 2.1 04:18:32 10° NNW 04:24:15 82° WSW 04:29:54 10° SSE visible
03 Oct 2.2 19:13:34 10° SSW 19:19:17 86° WNW 19:25:02 10° NNE visible
03 Oct 4.5 20:59:55 10° W 21:04:12 21° NW 21:08:30 10° N visible
